• Join FlightAware (Why Join?)
  • Login
  • US Flag 
10:05PM EDT


 

Airport Tracker/Info


-or-


 

Live Flight TrackerFlight Track Log ✈ EGF3994 ✈ 29-Apr-2013 ✈ KORD - KDAY

Flight Track Log - Related Links

Times and Time Zones

All times are in EDT time to prevent confusion due to time zone crossing. See the EGF3994 flight status page for this flight to view local times or setup timezone preferences in your user account.

Time Position Orientation Groundspeed Altitude Reporting Facility
EDT Latitude Longitude Course Direction KTS MPH feet Rate Location/Type
06:43PM 41.9333 -87.9000 90° East 161 185 2,000  Level Chicago TRACON
06:44PM 41.9167 -87.8500 114° Southeast 224 258 3,900 2,100 Climbing Chicago TRACON
06:45PM 41.9667 -87.6128 90° East  Level FlightAware Approximate
06:46PM 41.9603 -87.4698 98° East  Level FlightAware Approximate
06:46PM 41.9589 -87.6850 71° East 286 329 8,000  Level Chicago Center
06:47PM 41.9472 -87.3273 95° East  Level FlightAware Approximate
06:47PM 41.9700 -87.5711 82° East 320 368 10,400  Level Chicago Center
06:48PM 41.9370 -87.1845 95° East  Level FlightAware Approximate
06:48PM 41.9619 -87.4506 95° East 324 373 12,500  Level Chicago Center
06:49PM 41.9333 -87.0608 90° East  Level FlightAware Approximate
06:49PM 41.9564 -87.3222 93° East 339 390 14,100  Level Chicago Center
06:50PM 41.9375 -87.1536 99° East 377 434 15,600 1,620 Climbing Chicago Center
06:51PM 41.9211 -87.0075 99° East 394 453 17,500 1,860 Climbing Chicago Center
06:52PM 41.9039 -86.8619 99° East 395 455 19,500 1,500 Climbing Chicago Center
06:53PM 41.8889 -86.7156 98° East 397 457 20,700 1,200 Climbing Chicago Center
06:54PM 41.8703 -86.5486 98° East 422 486 22,000 1,080 Climbing Chicago Center
06:55PM 41.8514 -86.3875 99° East 434 499 23,000 480 Climbing Chicago Center
06:56PM 41.8311 -86.2192 99° East 454 522 23,000  Level Chicago Center
06:57PM 41.8111 -86.0444 99° East 471 542 23,000  Level Chicago Center
06:59PM 41.7861 -85.8358 99° East 472 543 23,000  Level Chicago Center
07:00PM 41.7658 -85.6628 99° East 470 541 23,000  Level Chicago Center
07:01PM 41.7078 -85.5131 117° Southeast 461 531 23,000  Level Chicago Center
07:02PM 41.5781 -85.4392 157° South 454 522 23,000  Level Chicago Center
07:03PM 41.4594 -85.3889 162° South 448 516 23,000  Level Chicago Center
07:04PM 41.3414 -85.3378 162° South 447 514 23,000 -240 Level Chicago Center
07:05PM 41.2400 -85.2406 144° Southeast 466 536 22,600 -1,020 Descending Chicago Center
07:06PM 41.1508 -85.1247 136° Southeast 459 528 20,900 -1,920 Descending Chicago Center
07:07PM 41.0492 -84.9933 136° Southeast 433 498 18,700 -2,040 Descending Chicago Center
07:08PM 40.9656 -84.8864 136° Southeast 422 486 16,800 -1,800 Descending Chicago Center
07:09PM 40.8828 -84.7836 137° Southeast 414 476 15,100 -960 Descending Chicago Center
07:10PM 40.8025 -84.6828 136° Southeast 405 466 14,900 -60 Descending Chicago Center
07:11PM 40.7239 -84.5822 136° Southeast 398 458 15,000  Climbing Chicago Center
07:12PM 40.6272 -84.4628 137° Southeast 398 458 15,000 -60 Level Chicago Center
07:13PM 40.5839 -84.4083 136° Southeast 400 460 14,900 -720 Descending Indianapolis Center
07:14PM 40.5036 -84.3094 137° Southeast 393 452 13,800 -1,320 Descending Indianapolis Center
07:15PM 40.4061 -84.2053 141° Southeast 383 441 12,200 -1,620 Descending Indianapolis Center
07:16PM 40.3147 -84.2017 178° South 290 334 10,600 -2,040 Descending Indianapolis Center
07:17PM 40.2347 -84.2072 183° South 278 320 8,100 -2,340 Descending Indianapolis Center
07:18PM 40.1589 -84.2108 182° South 270 311 5,900 -1,860 Descending Indianapolis Center
07:19PM 40.0914 -84.2156 183° South 242 278 4,400 -1,500 Descending Indianapolis Center